Location: Jastrzębia Góra
(54.8312°N, 18.3037°E)
Time: 22:08:27
(UTC+01:00)

ISS - Pass Details

Date: 31 January 2019
Orbit: 403 x 411 km, 51.6° (Epoch: 22 February)

Event Time Altitude Azimuth Distance (km) Brightness Sun altitude
Rises 19:46:19 0° 273° (W) 2,341 1.2 -29.3°
Reaches altitude 10° 19:48:30 10° 264° (W) 1,480 -0.2 -29.6°
Enters shadow 19:49:03 14° 260° (W) 1,279 -0.6 -29.6°
